カタログに戻る

THORAD AGENA D DEB

運用中PO
NORAD 19667·DEBRIS·🇺🇸 United States

打ち上げ Apr 8, 1970 から Vandenberg Space Force Base

Loading…

次のパス (今後24時間)

TLE

最新Source: Space-Track

元期: Sep 14, 2026, 16:14 UTC

1 19667U 70025QC  26257.67685185  .00000108  00000-0  46273-3 0  9995
2 19667  99.7367 153.2768 0338005 293.9352  89.6972 12.86347103793360

AllMySatでTHORAD AGENA D DEBをリアルタイム追跡

Download on the App Store